Time,TemperatureF,DewpointF,PressureIn,WindDirection,WindDirectionDegrees,WindSpeedMPH,WindSpeedGustMPH,Humidity,HourlyPrecipIn,Conditions,Clouds,dailyrainin,SoftwareType,DateUTC
2013-01-10 00:02:00,66.0,65.0,30.10,SE,146,3.0,8.0,98,0.08,,,1.29,,2013-01-10 06:02:00,
2013-01-10 00:12:00,66.0,65.0,30.10,SE,146,3.0,8.0,98,0.08,,,1.29,,2013-01-10 06:12:00,
2013-01-10 00:22:00,67.0,66.0,30.08,SE,137,5.0,10.0,98,0.09,,,1.29,,2013-01-10 06:22:00,
2013-01-10 00:32:00,67.0,66.0,30.09,SSE,151,5.0,8.0,98,0.10,,,1.30,,2013-01-10 06:32:00,
2013-01-10 00:42:00,67.0,66.0,30.09,SSE,151,5.0,8.0,98,0.10,,,1.30,,2013-01-10 06:42:00,
2013-01-10 00:52:00,67.0,66.0,30.10,SE,141,1.0,5.0,98,0.12,,,1.32,,2013-01-10 06:52:00,
2013-01-10 01:02:00,67.0,66.0,30.07,SE,135,5.0,8.0,98,0.13,,,1.32,,2013-01-10 07:02:00,
2013-01-10 01:12:00,67.0,66.0,30.07,SE,135,5.0,8.0,98,0.13,,,1.32,,2013-01-10 07:12:00,
2013-01-10 01:22:00,68.0,67.0,30.08,SSE,147,5.0,8.0,98,0.13,,,1.34,,2013-01-10 07:22:00,
2013-01-10 01:32:00,69.0,68.0,30.08,SE,143,2.0,8.0,98,0.13,,,1.34,,2013-01-10 07:32:00,
2013-01-10 01:42:00,69.0,68.0,30.08,SE,143,2.0,8.0,98,0.13,,,1.34,,2013-01-10 07:42:00,
2013-01-10 01:52:00,69.0,68.0,30.08,ENE,61,1.0,5.0,98,0.12,,,1.36,,2013-01-10 07:52:00,
2013-01-10 02:01:00,69.0,68.0,30.08,ENE,65,0.0,2.0,98,0.12,,,1.37,,2013-01-10 08:01:00,
2013-01-10 02:11:00,69.0,68.0,30.08,ENE,65,0.0,2.0,98,0.12,,,1.37,,2013-01-10 08:11:00,
2013-01-10 02:22:00,69.0,68.0,30.06,ENE,68,3.0,7.0,98,0.13,,,1.39,,2013-01-10 08:22:00,
2013-01-10 02:32:00,68.0,67.0,30.04,ENE,75,5.0,8.0,98,0.13,,,1.40,,2013-01-10 08:32:00,
2013-01-10 02:42:00,68.0,67.0,30.04,ENE,75,5.0,8.0,98,0.13,,,1.40,,2013-01-10 08:42:00,
2013-01-10 02:53:00,69.0,68.0,30.03,ENE,71,3.0,10.0,98,0.13,,,1.42,,2013-01-10 08:53:00,
2013-01-10 03:02:00,69.0,68.0,30.02,East,94,5.0,12.0,98,0.13,,,1.43,,2013-01-10 09:02:00,
2013-01-10 03:12:00,69.0,68.0,30.02,East,94,5.0,12.0,98,0.13,,,1.43,,2013-01-10 09:12:00,
2013-01-10 03:22:00,70.0,69.0,30.01,SE,128,6.0,13.0,98,0.12,,,1.45,,2013-01-10 09:22:00,
2013-01-10 03:32:00,70.0,69.0,30.01,SE,146,7.0,15.0,98,0.13,,,1.47,,2013-01-10 09:32:00,
2013-01-10 03:42:00,70.0,69.0,30.01,SE,146,7.0,15.0,98,0.13,,,1.47,,2013-01-10 09:42:00,
2013-01-10 03:52:00,71.0,70.0,30.00,SSE,148,5.0,13.0,98,0.13,,,1.48,,2013-01-10 09:52:00,
2013-01-10 04:02:00,71.0,70.0,30.00,SE,140,6.0,10.0,98,0.13,,,1.49,,2013-01-10 10:02:00,
2013-01-10 04:12:00,71.0,70.0,30.00,SE,140,6.0,10.0,98,0.13,,,1.49,,2013-01-10 10:12:00,
2013-01-10 04:22:00,71.0,70.0,29.97,ESE,116,5.0,12.0,98,0.13,,,1.51,,2013-01-10 10:22:00,
2013-01-10 04:32:00,71.0,70.0,29.97,ESE,113,6.0,10.0,98,0.12,,,1.52,,2013-01-10 10:32:00,
2013-01-10 04:42:00,71.0,70.0,29.97,ESE,113,6.0,10.0,98,0.12,,,1.52,,2013-01-10 10:42:00,
2013-01-10 04:52:00,71.0,70.0,29.95,South,170,4.0,17.0,97,0.13,,,1.56,,2013-01-10 10:52:00,
2013-01-10 05:02:00,71.0,70.0,29.99,SSW,206,3.0,8.0,97,0.14,,,1.58,,2013-01-10 11:02:00,
2013-01-10 05:12:00,69.0,68.0,30.00,NE,40,3.0,10.0,97,0.15,,,1.61,,2013-01-10 11:12:00,
2013-01-10 05:22:00,69.0,68.0,30.00,NE,40,3.0,10.0,97,0.15,,,1.61,,2013-01-10 11:22:00,
2013-01-10 05:32:00,68.0,67.0,30.03,WNW,298,1.0,7.0,97,0.15,,,1.62,,2013-01-10 11:32:00,
2013-01-10 05:42:00,68.0,67.0,30.03,WNW,298,1.0,7.0,97,0.15,,,1.62,,2013-01-10 11:42:00,
2013-01-10 05:53:00,66.0,65.0,30.04,NW,307,4.0,22.0,98,0.15,,,1.65,,2013-01-10 11:53:00,
2013-01-10 06:02:00,65.0,64.0,30.03,WNW,283,3.0,12.0,98,0.15,,,1.67,,2013-01-10 12:02:00,
2013-01-10 06:12:00,65.0,64.0,30.03,WNW,283,3.0,12.0,98,0.15,,,1.67,,2013-01-10 12:12:00,
2013-01-10 06:22:00,66.0,65.0,30.08,WNW,303,2.0,8.0,98,0.16,,,1.71,,2013-01-10 12:22:00,
2013-01-10 06:32:00,66.0,65.0,30.08,WNW,303,2.0,8.0,98,0.16,,,1.71,,2013-01-10 12:32:00,
2013-01-10 06:42:00,66.0,65.0,30.08,WNW,303,2.0,8.0,98,0.16,,,1.71,,2013-01-10 12:42:00,
2013-01-10 06:53:00,66.0,65.0,30.06,North,7,7.0,14.0,98,0.18,,,1.77,,2013-01-10 12:53:00,
2013-01-10 07:02:00,65.0,64.0,30.04,North,2,9.0,15.0,98,0.18,,,1.80,,2013-01-10 13:02:00,
2013-01-10 07:12:00,65.0,64.0,30.04,North,2,9.0,15.0,98,0.18,,,1.80,,2013-01-10 13:12:00,
2013-01-10 07:22:00,65.0,64.0,30.07,West,278,1.0,12.0,98,0.18,,,1.84,,2013-01-10 13:22:00,
2013-01-10 07:32:00,65.0,64.0,30.06,NNE,14,5.0,8.0,98,0.18,,,1.86,,2013-01-10 13:32:00,
2013-01-10 07:42:00,65.0,64.0,30.06,NNE,14,5.0,8.0,98,0.18,,,1.86,,2013-01-10 13:42:00,
2013-01-10 07:53:00,65.0,64.0,30.10,North,352,5.0,8.0,98,0.18,,,1.91,,2013-01-10 13:53:00,
2013-01-10 08:02:00,65.0,64.0,30.09,NE,51,4.0,9.0,98,0.18,,,1.93,,2013-01-10 14:02:00,
2013-01-10 08:12:00,65.0,64.0,30.09,NE,51,4.0,9.0,98,0.18,,,1.93,,2013-01-10 14:12:00,
2013-01-10 08:22:00,65.0,64.0,30.10,NE,46,2.0,12.0,98,0.18,,,1.97,,2013-01-10 14:22:00,
2013-01-10 08:32:00,65.0,64.0,30.09,ENE,70,5.0,10.0,98,0.18,,,1.99,,2013-01-10 14:32:00,
2013-01-10 08:43:00,65.0,64.0,30.09,ENE,70,5.0,10.0,98,0.18,,,1.99,,2013-01-10 14:43:00,
2013-01-10 08:53:00,65.0,64.0,30.13,North,355,2.0,9.0,98,0.18,,,2.04,,2013-01-10 14:53:00,
2013-01-10 09:03:00,65.0,64.0,30.13,NNE,30,2.0,7.0,98,0.18,,,2.06,,2013-01-10 15:03:00,
2013-01-10 09:12:00,65.0,64.0,30.13,NNE,30,2.0,7.0,98,0.18,,,2.06,,2013-01-10 15:12:00,
2013-01-10 09:22:00,65.0,64.0,30.11,ENE,73,7.0,16.0,98,0.17,,,2.10,,2013-01-10 15:22:00,
2013-01-10 09:32:00,65.0,64.0,30.08,SE,134,10.0,18.0,98,0.17,,,2.12,,2013-01-10 15:32:00,
2013-01-10 09:43:00,65.0,64.0,30.08,SE,134,10.0,18.0,98,0.17,,,2.12,,2013-01-10 15:43:00,
2013-01-10 09:53:00,64.0,63.0,30.06,ESE,105,8.0,17.0,98,0.16,,,2.16,,2013-01-10 15:53:00,
2013-01-10 10:02:00,64.0,63.0,30.06,ENE,76,6.0,14.0,98,0.16,,,2.18,,2013-01-10 16:02:00,
2013-01-10 10:12:00,64.0,63.0,30.06,ENE,76,6.0,14.0,98,0.16,,,2.18,,2013-01-10 16:12:00,
2013-01-10 10:23:00,64.0,63.0,30.07,ESE,114,6.0,9.0,98,0.16,,,2.22,,2013-01-10 16:23:00,
2013-01-10 10:33:00,64.0,63.0,30.09,ENE,59,5.0,9.0,98,0.15,,,2.23,,2013-01-10 16:33:00,
2013-01-10 10:43:00,64.0,63.0,30.09,ENE,59,5.0,9.0,98,0.15,,,2.23,,2013-01-10 16:43:00,
2013-01-10 10:53:00,64.0,63.0,30.09,SE,145,6.0,7.0,98,0.15,,,2.27,,2013-01-10 16:53:00,
2013-01-10 11:03:00,64.0,63.0,30.10,SSE,147,4.0,8.0,98,0.14,,,2.28,,2013-01-10 17:03:00,
2013-01-10 11:12:00,64.0,63.0,30.10,SSE,147,4.0,8.0,98,0.14,,,2.28,,2013-01-10 17:12:00,
2013-01-10 11:22:00,64.0,63.0,30.09,East,97,4.0,10.0,98,0.13,,,2.30,,2013-01-10 17:22:00,
2013-01-10 11:33:00,64.0,63.0,30.07,SSE,150,7.0,9.0,98,0.14,,,2.33,,2013-01-10 17:33:00,
2013-01-10 11:42:00,64.0,63.0,30.07,SSE,150,7.0,9.0,98,0.14,,,2.33,,2013-01-10 17:42:00,
2013-01-10 11:53:00,64.0,63.0,30.07,SW,217,1.0,8.0,98,0.13,,,2.35,,2013-01-10 17:53:00,
2013-01-10 12:03:00,64.0,63.0,30.06,East,101,1.0,5.0,98,0.13,,,2.37,,2013-01-10 18:03:00,
2013-01-10 12:12:00,64.0,63.0,30.08,SSW,206,0.0,1.0,98,0.14,,,2.40,,2013-01-10 18:12:00,
2013-01-10 12:23:00,64.0,63.0,30.08,SSW,206,0.0,1.0,98,0.14,,,2.40,,2013-01-10 18:23:00,
2013-01-10 12:33:00,64.0,63.0,30.06,SSW,206,0.0,2.0,98,0.13,,,2.42,,2013-01-10 18:33:00,
2013-01-10 12:43:00,64.0,63.0,30.07,SE,137,0.0,1.0,98,0.13,,,2.44,,2013-01-10 18:43:00,
2013-01-10 12:53:00,64.0,63.0,30.07,SE,137,0.0,1.0,98,0.13,,,2.44,,2013-01-10 18:53:00,
2013-01-10 13:02:00,64.0,63.0,30.07,SE,131,0.0,2.0,98,0.13,,,2.46,,2013-01-10 19:02:00,
2013-01-10 13:12:00,64.0,63.0,30.06,SE,131,0.0,0.0,98,0.13,,,2.49,,2013-01-10 19:12:00,
2013-01-10 13:23:00,64.0,63.0,30.06,SE,131,0.0,0.0,98,0.13,,,2.49,,2013-01-10 19:23:00,
2013-01-10 13:33:00,64.0,63.0,30.06,SE,131,0.0,0.0,98,0.13,,,2.50,,2013-01-10 19:33:00,
2013-01-10 13:43:00,64.0,63.0,30.06,SE,131,0.0,0.0,98,0.13,,,2.50,,2013-01-10 19:43:00,
2013-01-10 13:53:00,65.0,64.0,30.06,SSW,203,0.0,2.0,98,0.13,,,2.53,,2013-01-10 19:53:00,
2013-01-10 14:02:00,65.0,64.0,30.07,SSW,201,0.0,2.0,98,0.13,,,2.54,,2013-01-10 20:02:00,
2013-01-10 14:12:00,65.0,64.0,30.06,ESE,117,0.0,0.0,98,0.11,,,2.55,,2013-01-10 20:12:00,
2013-01-10 14:23:00,65.0,64.0,30.06,ESE,117,0.0,0.0,98,0.11,,,2.55,,2013-01-10 20:23:00,
2013-01-10 14:33:00,65.0,64.0,30.06,ESE,117,0.0,0.0,98,0.11,,,2.56,,2013-01-10 20:33:00,
2013-01-10 14:42:00,65.0,64.0,30.06,ESE,117,0.0,0.0,98,0.11,,,2.56,,2013-01-10 20:42:00,
2013-01-10 14:53:00,65.0,64.0,30.04,SSE,150,0.0,5.0,98,0.11,,,2.59,,2013-01-10 20:53:00,
2013-01-10 15:03:00,65.0,64.0,30.04,SSE,150,0.0,0.0,98,0.11,,,2.60,,2013-01-10 21:03:00,
2013-01-10 15:12:00,66.0,65.0,30.03,SSE,152,0.0,3.0,98,0.11,,,2.61,,2013-01-10 21:12:00,
2013-01-10 15:23:00,66.0,65.0,30.03,SSE,152,0.0,3.0,98,0.11,,,2.61,,2013-01-10 21:23:00,
2013-01-10 15:33:00,66.0,65.0,30.03,SSE,148,0.0,3.0,98,0.11,,,2.62,,2013-01-10 21:33:00,
2013-01-10 15:42:00,66.0,65.0,30.03,SSE,148,0.0,3.0,98,0.11,,,2.62,,2013-01-10 21:42:00,
2013-01-10 15:53:00,66.0,65.0,30.03,SE,133,0.0,0.0,98,0.11,,,2.65,,2013-01-10 21:53:00,
2013-01-10 16:03:00,66.0,65.0,30.03,SE,137,0.0,2.0,98,0.10,,,2.65,,2013-01-10 22:03:00,
2013-01-10 16:12:00,66.0,65.0,30.04,SE,138,0.0,1.0,98,0.11,,,2.68,,2013-01-10 22:12:00,
2013-01-10 16:25:00,66.0,65.0,30.04,SE,138,0.0,1.0,98,0.11,,,2.68,,2013-01-10 22:25:00,
2013-01-10 16:32:00,66.0,65.0,30.03,SSE,151,1.0,2.0,98,0.10,,,2.68,,2013-01-10 22:32:00,
2013-01-10 16:43:00,66.0,65.0,30.03,SSE,151,1.0,2.0,98,0.10,,,2.68,,2013-01-10 22:43:00,
2013-01-10 17:02:00,65.0,64.0,30.02,East,99,0.0,2.0,98,0.10,,,2.71,,2013-01-10 23:02:00,
2013-01-10 17:12:00,65.0,64.0,30.03,SSE,167,0.0,5.0,98,0.09,,,2.72,,2013-01-10 23:12:00,
2013-01-10 17:22:00,65.0,64.0,30.03,SSE,167,0.0,5.0,98,0.09,,,2.72,,2013-01-10 23:22:00,
2013-01-10 17:33:00,65.0,64.0,30.03,SSW,211,2.0,5.0,98,0.10,,,2.73,,2013-01-10 23:33:00,
2013-01-10 17:43:00,65.0,64.0,30.03,SSW,211,2.0,5.0,98,0.10,,,2.73,,2013-01-10 23:43:00,
2013-01-10 17:53:00,65.0,64.0,30.03,SW,218,2.0,7.0,98,0.10,,,2.75,,2013-01-10 23:53:00,
2013-01-10 18:02:00,65.0,64.0,30.03,SW,231,2.0,5.0,98,0.09,,,2.75,,2013-01-11 00:02:00,
2013-01-10 18:12:00,65.0,64.0,30.03,South,191,2.0,7.0,98,0.09,,,2.77,,2013-01-11 00:12:00,
2013-01-10 18:23:00,65.0,64.0,30.03,South,191,2.0,7.0,98,0.09,,,2.77,,2013-01-11 00:23:00,
2013-01-10 18:33:00,65.0,64.0,30.03,SSW,193,3.0,7.0,98,0.08,,,2.77,,2013-01-11 00:33:00,
2013-01-10 18:42:00,65.0,64.0,30.03,SSW,193,3.0,7.0,98,0.08,,,2.77,,2013-01-11 00:42:00,
2013-01-10 18:53:00,65.0,64.0,30.03,SSW,198,1.0,7.0,98,0.08,,,2.79,,2013-01-11 00:53:00,
2013-01-10 19:03:00,65.0,64.0,30.03,SSW,194,1.0,7.0,98,0.08,,,2.79,,2013-01-11 01:03:00,
2013-01-10 19:12:00,65.0,64.0,30.03,SSE,151,2.0,6.0,98,0.08,,,2.80,,2013-01-11 01:12:00,
2013-01-10 19:22:00,65.0,64.0,30.03,SSE,151,2.0,6.0,98,0.08,,,2.80,,2013-01-11 01:22:00,
2013-01-10 19:33:00,65.0,64.0,30.03,South,185,1.0,5.0,98,0.08,,,2.80,,2013-01-11 01:33:00,
2013-01-10 19:43:00,65.0,64.0,30.03,South,185,1.0,5.0,98,0.08,,,2.80,,2013-01-11 01:43:00,
2013-01-10 19:53:00,65.0,64.0,30.03,South,190,1.0,6.0,98,0.08,,,2.82,,2013-01-11 01:53:00,
2013-01-10 20:02:00,65.0,64.0,30.03,SW,222,3.0,9.0,98,0.08,,,2.82,,2013-01-11 02:02:00,
2013-01-10 20:12:00,65.0,64.0,30.03,South,184,2.0,7.0,98,0.07,,,2.82,,2013-01-11 02:12:00,
2013-01-10 20:23:00,65.0,64.0,30.03,South,184,2.0,7.0,98,0.07,,,2.82,,2013-01-11 02:23:00,
2013-01-10 20:33:00,65.0,64.0,30.03,SSW,198,4.0,9.0,98,0.07,,,2.82,,2013-01-11 02:33:00,
2013-01-10 20:43:00,65.0,64.0,30.03,SSW,198,4.0,9.0,98,0.07,,,2.82,,2013-01-11 02:43:00,
2013-01-10 20:54:00,66.0,65.0,30.03,WSW,237,3.0,6.0,98,0.06,,,2.83,,2013-01-11 02:54:00,
2013-01-10 21:02:00,66.0,65.0,30.04,SW,215,2.0,9.0,98,0.07,,,2.84,,2013-01-11 03:02:00,
2013-01-10 21:12:00,66.0,65.0,30.04,SW,214,5.0,8.0,98,0.07,,,2.84,,2013-01-11 03:12:00,
2013-01-10 21:23:00,66.0,65.0,30.04,SW,214,5.0,8.0,98,0.07,,,2.84,,2013-01-11 03:23:00,
2013-01-10 21:33:00,66.0,65.0,30.04,SW,222,3.0,8.0,98,0.07,,,2.84,,2013-01-11 03:33:00,
2013-01-10 21:42:00,66.0,65.0,30.04,SW,222,3.0,8.0,98,0.07,,,2.84,,2013-01-11 03:42:00,
2013-01-10 21:53:00,66.0,65.0,30.05,SW,216,5.0,9.0,98,0.07,,,2.84,,2013-01-11 03:53:00,
2013-01-10 22:02:00,67.0,66.0,30.05,WSW,242,3.0,7.0,98,0.06,,,2.84,,2013-01-11 04:02:00,
2013-01-10 22:12:00,66.0,65.0,30.05,WSW,241,2.0,6.0,98,0.06,,,2.85,,2013-01-11 04:12:00,
2013-01-10 22:22:00,66.0,65.0,30.05,WSW,241,2.0,6.0,98,0.06,,,2.85,,2013-01-11 04:22:00,
2013-01-10 22:33:00,66.0,65.0,30.05,SW,231,2.0,7.0,98,0.06,,,2.85,,2013-01-11 04:33:00,
2013-01-10 22:42:00,66.0,65.0,30.05,SW,231,2.0,7.0,98,0.06,,,2.85,,2013-01-11 04:42:00,
2013-01-10 22:53:00,66.0,65.0,30.06,WSW,257,1.0,5.0,98,0.06,,,2.85,,2013-01-11 04:53:00,
2013-01-10 23:03:00,65.0,64.0,30.06,West,272,0.0,3.0,98,0.06,,,2.85,,2013-01-11 05:03:00,
2013-01-10 23:12:00,64.0,63.0,30.06,West,268,0.0,0.0,98,0.06,,,2.85,,2013-01-11 05:12:00,
2013-01-10 23:22:00,64.0,63.0,30.06,West,268,0.0,0.0,98,0.06,,,2.85,,2013-01-11 05:22:00,
2013-01-10 23:33:00,64.0,63.0,30.07,West,268,0.0,0.0,98,0.06,,,2.85,,2013-01-11 05:33:00,
2013-01-10 23:42:00,64.0,63.0,30.07,West,268,0.0,0.0,98,0.06,,,2.85,,2013-01-11 05:42:00,
2013-01-10 23:53:00,64.0,63.0,30.07,NW,312,0.0,0.0,98,0.05,,,2.83,,2013-01-11 05:53:00,